Terminal Aerodrome Forecast
Issued by NWS

Home | Current Version | Previous Version | Graphics & Text | Print | Product List | Glossary On
Versions: 1 2 3 4 5 6 7 8 9 10 11 12 13 14 15 16 17 18
707
FTUS43 KIWX 230638 AAA
TAFSBN
TAF AMD
KSBN 230638Z 2307/2406 12012G18KT 2SM BR OVC007
     FM230800 12012KT 2SM -DZ BR OVC005
     FM231200 15008KT 4SM -RA BR OVC003
     FM231600 23009KT P6SM OVC008
     FM240200 30007KT P6SM SCT015 BKN035=

USA.gov is the U.S. government's official web portal to all federal, state and local government web resources and services.